GW4745 Weather Reports


time (UTC)temp
F
wind
direction
speed
knots
gust
knots
rain 1hr
in
rain 24hr
in
rain mn
in
humidity
%
barometer
mb
20260510234609 77 150 3.5 6.1 0.00 0.00 0.00 38 1015.3
20260510233114 78 150 4.3 8.7 0.00 0.00 0.00 36 1015.1
20260510231559 79 150 5.2 7.8 0.00 0.00 0.00 35 1014.9
20260510230101 79 150 5.2 12.2 0.00 0.00 0.00 33 1015.0
20260510224608 80 150 4.3 9.6 0.00 0.00 0.00 33 1015.0
20260510223106 80 150 5.2 8.7 0.00 0.00 0.00 32 1015.0
20260510221601 81 150 7.0 11.3 0.00 0.00 0.00 30 1014.9
20260510220106 81 150 4.3 9.6 0.00 0.00 0.00 31 1014.7
20260510214603 82 150 5.2 11.3 0.00 0.00 0.00 30 1014.7
20260510213102 82 150 2.6 8.7 0.00 0.00 0.00 30 1014.7
20260510211559 81 150 4.3 8.7 0.00 0.00 0.00 27 1014.7
20260510204604 82 150 2.6 7.8 0.00 0.00 0.00 26 1014.9
20260510203058 82 150 2.6 6.1 0.00 0.00 0.00 27 1014.9
20260510201610 82 150 1.7 9.6 0.00 0.00 0.00 27 1015.0
20260510200101 82 150 6.1 12.2 0.00 0.00 0.00 28 1015.2
20260510194607 81 150 1.7 9.6 0.00 0.00 0.00 28 1015.3
20260510193104 82 150 1.7 5.2 0.00 0.00 0.00 30 1015.5
20260510191605 80 150 1.7 9.6 0.00 0.00 0.00 29 1015.5
20260510190106 80 150 1.7 7.0 0.00 0.00 0.00 29 1015.7
20260510184607 80 150 2.6 7.8 0.00 0.00 0.00 31 1015.7
20260510183108 79 150 2.6 11.3 0.00 0.00 0.00 30 1015.7
20260510181610 79 150 5.2 7.8 0.00 0.00 0.00 31 1015.8
20260510180110 79 150 6.1 8.7 0.00 0.00 0.00 31 1016.0
20260510174558 79 150 1.7 7.0 0.00 0.00 0.00 31 1016.0
20260510173105 79 150 3.5 9.6 0.00 0.00 0.00 31 1016.3
20260510171607 78 150 3.5 10.4 0.00 0.00 0.00 32 1016.3
20260510170101 78 150 0.9 7.0 0.00 0.00 0.00 30 1016.4
20260510164606 77 150 2.6 8.7 0.00 0.00 0.00 31 1016.4
20260510163059 77 150 1.7 5.2 0.00 0.00 0.00 30 1016.5
20260510161606 76 150 1.7 4.3 0.00 0.00 0.00 31 1016.7
20260510160059 76 150 0.9 7.0 0.00 0.00 0.00 35 1016.9
20260510154605 75 150 3.5 7.0 0.00 0.00 0.00 35 1016.8
20260510153102 74 150 1.7 6.1 0.00 0.00 0.00 40 1016.8
20260510151558 73 150 3.5 6.1 0.00 0.00 0.00 42 1017.1
20260510150125 73 150 2.6 5.2 0.00 0.00 0.00 45 1016.9
20260510144557 72 150 0.9 3.5 0.00 0.00 0.00 49 1016.8
20260510143103 71 150 0.9 3.5 0.00 0.00 0.00 51 1016.7
20260510141600 70 0 0.0 5.2 0.00 0.00 0.00 51 1016.8
20260510134601 69 150 0.9 2.6 0.00 0.00 0.00 55 1017.0
20260510133058 68 150 1.7 3.5 0.00 0.00 0.00 58 1016.8
20260510131605 67 150 1.7 3.5 0.00 0.00 0.00 59 1016.8
20260510130059 66 150 0.0 1.7 0.00 0.00 0.00 64 1016.6
20260510124606 65 150 0.9 1.7 0.00 0.00 0.00 70 1016.6
20260510123102 63 150 0.0 1.7 0.00 0.00 0.00 74 1016.7
20260510121558 62 150 0.0 0.9 0.00 0.00 0.00 79 1016.4
20260510120058 60 0 0.0 0.9 0.00 0.00 0.00 83 1016.0
20260510114601 56 0 0.0 0.0 0.00 0.00 0.00 91 1015.9
20260510113057 55 0 0.0 0.0 0.00 0.00 0.00 91 1015.5
20260510111604 55 0 0.0 0.0 0.00 0.00 0.00 93 1015.2
20260510110057 53 0 0.0 0.0 0.00 0.00 0.00 94 1015.2
20260510104608 52 0 0.0 0.0 0.00 0.00 0.00 94 1014.6
20260510103104 53 0 0.0 0.0 0.00 0.00 0.00 93 1014.5
20260510101600 54 0 0.0 0.0 0.00 0.00 0.00 92 1014.1
20260510094613 55 0 0.0 0.0 0.00 0.00 0.00 92 1013.8
20260510093121 55 0 0.0 0.0 0.00 0.00 0.00 92 1013.8
20260510091557 55 0 0.0 0.0 0.00 0.00 0.00 93 1013.7
20260510090059 56 0 0.0 0.9 0.00 0.00 0.00 92 1013.6
20260510084616 55 0 0.0 0.0 0.00 0.00 0.00 96 1013.6
20260510083109 55 0 0.0 0.0 0.00 0.00 0.00 96 1013.4
20260510081558 56 0 0.0 0.0 0.00 0.00 0.00 96 1013.2
20260510074602 56 0 0.0 0.0 0.00 0.00 0.00 95 1012.9
20260510073100 57 0 0.0 0.0 0.00 0.00 0.00 95 1012.8
20260510071600 57 0 0.0 0.0 0.00 0.00 0.00 95 1012.7
20260510070059 58 0 0.0 0.0 0.00 0.00 0.00 95 1012.7
20260510064606 58 150 0.0 0.9 0.00 0.00 0.00 95 1012.7
20260510063101 58 150 0.0 0.9 0.00 0.00 0.00 95 1012.7
20260510061601 58 150 0.0 0.9 0.00 0.00 0.00 95 1012.9
20260510054600 59 0 0.0 0.0 0.00 0.00 0.00 93 1013.1
20260510053059 59 0 0.0 0.0 0.00 0.00 0.00 94 1012.9
20260510051605 59 150 0.0 0.0 0.00 0.00 0.00 93 1013.0
20260510050057 60 0 0.0 0.9 0.00 0.00 0.00 93 1013.3
20260510044617 60 0 0.0 0.9 0.00 0.00 0.00 92 1013.1
20260510043058 60 0 0.0 1.7 0.00 0.00 0.00 92 1013.1
20260510041558 60 150 1.7 5.2 0.00 0.00 0.00 92 1013.3
20260510040058 60 0 0.0 0.0 0.00 0.00 0.00 91 1013.1
20260510034600 61 0 0.0 0.0 0.00 0.00 0.00 90 1013.1
20260510033110 62 0 0.0 0.0 0.00 0.00 0.00 89 1013.2
20260510031557 62 0 0.0 0.0 0.00 0.00 0.00 88 1013.3
20260510030106 63 0 0.0 0.9 0.00 0.00 0.00 87 1013.2
20260510024600 63 150 0.0 0.9 0.00 0.00 0.00 85 1013.1
20260510023104 64 150 0.0 2.6 0.00 0.00 0.00 84 1013.0
20260510021613 65 0 0.0 2.6 0.00 0.00 0.00 83 1012.9
20260510020059 65 150 0.9 3.5 0.00 0.00 0.00 81 1012.7
20260510014605 66 150 0.0 2.6 0.00 0.00 0.00 80 1012.5
20260510013105 67 150 1.7 6.1 0.00 0.00 0.00 79 1012.2
20260510011559 67 150 2.6 6.1 0.00 0.00 0.00 78 1012.0
20260510010104 67 150 0.9 5.2 0.00 0.00 0.00 78 1011.8
20260510004601 68 150 0.9 3.5 0.00 0.00 0.00 77 1011.6
20260510003101 68 150 2.6 5.2 0.00 0.00 0.00 77 1011.2
20260510001600 68 150 1.7 6.1 0.00 0.00 0.00 75 1011.0
20260510000058 69 150 3.5 7.8 0.00 0.00 0.00 74 1010.8